User: anonymous   Login
Location: Redwood Loop Observatory
(43.9900°N, 124.0900°W)
Time: 21:29:45
(UTC-08:00)
Language:

NOAA 18 - Orbit

View from above orbital plane
View from above orbital plane
View from above satellite
View from above satellite

Ground track
Ground track

The orbit data is extracted from the following two-line orbital elements,

1 28654U 05018A   19348.85639977 +.00000100 +00000-0 +79026-4 0  9997
2 28654 099.0726 038.2999 0014697 037.2413 322.9775 14.12474220750719
Epoch (UTC): 14 December 2019 20:33:12
Eccentricity: 0.0014697
inclination: 99.0726°
perigee height: 840 km
apogee height: 861 km
right ascension of ascending node: 38.2999°
argument of perigee: 37.2413°
revolutions per day: 14.12474220
mean anomaly at epoch: 322.9775°
orbit number at epoch: 75071

The dashed part of the orbit path shows where the satellite is in the earth's shadow,  

DLR